Huntingburg, IN

12:39 AM EDT on October 24, 2017 (GMT -0400)
Huntingburg

Weather History for KHNB - May, 2012

Change the Weather History Date:

Friday, May 25, 2012

  Actual Average Record
Temperature  
Mean Temperature 81 °F -  
Max Temperature 91 °F 73 °F 91 °F (2012)
Min Temperature 71 °F 55 °F 44 °F (2013)
Cooling Degree Days 16    
Growing Degree Days 31 (Base 50)    
Moisture  
Dew Point 64 °F    
Average Humidity 58    
Maximum Humidity 73    
Minimum Humidity 38    
Precipitation  
Precipitation 0.00 in - - ()
Sea Level Pressure  
Sea Level Pressure 29.99 in    
Wind  
Wind Speed 9 mph (South)    
Max Wind Speed 15 mph    
Max Gust Speed 21 mph    
Visibility 10 miles    
Events      
Averages and records for this station are not official NWS values.
T = Trace of Precipitation, MM = Missing Value Source: NWS Daily Summary

Daily Weather History Graph

Daily Weather History Graph

Search for Another Location

Airport or City:

Trip Planner

Search our weather history database for the weather conditions in past years. The results will help you decide how hot, cold, wet, or windy it might be!

Date:

Astronomy

May. 25, 2012 Rise Set
Actual Time 6:29 AM EDT 9:00 PM EDT
Civil Twilight 5:58 AM EDT 9:31 PM EDT
Nautical Twilight 5:20 AM EDT 10:09 PM EDT
Astronomical Twilight 4:38 AM EDT 10:51 PM EDT
Moon 10:27 AM EDT (5/25) 12:00 AM EDT (5/25)
Length of Visible Light 15h 32m
Length of Day
14h 31m
Waxing Crescent, 19% of the Moon is Illuminated
May 25
Waxing Crescent
May 28
First Quarter
Jun 4
Full
Jun 11
Last Quarter
Jun 19
New

Hourly Weather History & Observations

Time (EDT) Temp. Heat Index Dew Point Humidity Pressure Visibility Wind Dir Wind Speed Gust Speed Precip Events Conditions
12:15 AM 75.2 °F - 60.8 °F 61% 29.87 in 10.0 mi South 8.1 mph - N/A   Clear
12:35 AM 75.2 °F - 60.8 °F 61% 29.88 in 10.0 mi South 8.1 mph - N/A   Clear
12:55 AM 75.2 °F - 60.8 °F 61% 29.89 in 10.0 mi South 8.1 mph - N/A   Clear
1:15 AM 75.2 °F - 60.8 °F 61% 29.90 in 10.0 mi South 9.2 mph - N/A   Clear
1:35 AM 73.4 °F - 60.8 °F 65% 29.91 in 10.0 mi South 9.2 mph - N/A   Clear
1:55 AM 73.4 °F - 60.8 °F 65% 29.92 in 10.0 mi South 9.2 mph - N/A   Clear
2:15 AM 73.4 °F - 60.8 °F 65% 29.92 in 10.0 mi South 9.2 mph - N/A   Clear
2:35 AM 73.4 °F - 60.8 °F 65% 29.91 in 10.0 mi South 9.2 mph - N/A   Clear
2:55 AM 73.4 °F - 60.8 °F 65% 29.91 in 10.0 mi South 9.2 mph - N/A   Clear
3:15 AM 73.4 °F - 62.6 °F 69% 29.91 in 10.0 mi South 10.4 mph - N/A   Clear
3:35 AM 73.4 °F - 62.6 °F 69% 29.91 in 10.0 mi South 10.4 mph - N/A   Clear
3:55 AM 73.4 °F - 62.6 °F 69% 29.91 in 10.0 mi South 9.2 mph - N/A   Clear
4:15 AM 73.4 °F - 62.6 °F 69% 29.91 in 10.0 mi South 9.2 mph - N/A   Clear
4:35 AM 73.4 °F - 62.6 °F 69% 29.91 in 10.0 mi South 9.2 mph - N/A   Clear
4:55 AM 73.4 °F - 62.6 °F 69% 29.92 in 10.0 mi South 9.2 mph - N/A   Clear
5:15 AM 73.4 °F - 62.6 °F 69% 29.92 in 10.0 mi South 9.2 mph - N/A   Clear
5:35 AM 73.4 °F - 62.6 °F 69% 29.93 in 10.0 mi South 8.1 mph - N/A   Clear
5:55 AM 71.6 °F - 62.6 °F 73% 29.94 in 10.0 mi South 5.8 mph - N/A   Clear
6:15 AM 71.6 °F - 62.6 °F 73% 29.95 in 10.0 mi South 4.6 mph - N/A   Clear
6:35 AM 71.6 °F - 62.6 °F 73% 29.96 in 10.0 mi SSE 4.6 mph - N/A   Clear
6:55 AM 71.6 °F - 62.6 °F 73% 29.97 in 10.0 mi SSE 4.6 mph - N/A   Clear
7:15 AM 71.6 °F - 62.6 °F 73% 29.98 in 10.0 mi SSE 5.8 mph - N/A   Clear
7:35 AM 71.6 °F - 62.6 °F 73% 29.98 in 10.0 mi SSE 6.9 mph - N/A   Clear
7:55 AM 71.6 °F - 62.6 °F 73% 29.99 in 10.0 mi South 6.9 mph - N/A   Clear
8:15 AM 73.4 °F - 62.6 °F 69% 30.00 in 10.0 mi South 9.2 mph - N/A   Partly Cloudy
8:35 AM 73.4 °F - 62.6 °F 69% 30.00 in 10.0 mi South 9.2 mph - N/A   Partly Cloudy
8:55 AM 73.4 °F - 64.4 °F 73% 30.00 in 10.0 mi South 9.2 mph - N/A   Scattered Clouds
9:15 AM 75.2 °F - 64.4 °F 69% 30.01 in 10.0 mi SSW 10.4 mph - N/A   Partly Cloudy
9:35 AM 77.0 °F - 64.4 °F 65% 30.02 in 10.0 mi SSW 9.2 mph - N/A   Partly Cloudy
9:55 AM 78.8 °F - 66.2 °F 65% 30.02 in 10.0 mi SSW 10.4 mph - N/A   Clear
10:15 AM 80.6 °F 82.7 °F 66.2 °F 61% 30.02 in 10.0 mi SSW 12.7 mph - N/A   Clear
10:35 AM 78.8 °F - 66.2 °F 65% 30.02 in 10.0 mi SSW 9.2 mph - N/A   Clear
10:55 AM 80.6 °F 82.7 °F 66.2 °F 61% 30.03 in 10.0 mi SW 13.8 mph - N/A   Clear
11:15 AM 82.4 °F 84.6 °F 66.2 °F 58% 30.01 in 10.0 mi SW 8.1 mph - N/A   Clear
11:35 AM 82.4 °F 84.6 °F 66.2 °F 58% 30.00 in 10.0 mi SW 10.4 mph - N/A   Clear
11:55 AM 82.4 °F 84.6 °F 66.2 °F 58% 30.01 in 10.0 mi WSW 11.5 mph - N/A   Partly Cloudy
12:15 PM 84.2 °F 87.3 °F 68.0 °F 58% 30.03 in 10.0 mi SW 9.2 mph 17.3 mph N/A   Partly Cloudy
12:35 PM 84.2 °F 87.3 °F 68.0 °F 58% 30.02 in 10.0 mi SW 12.7 mph - N/A   Partly Cloudy
12:55 PM 86.0 °F 89.4 °F 68.0 °F 55% 30.02 in 10.0 mi WSW 9.2 mph - N/A   Partly Cloudy
1:15 PM 87.8 °F 91.4 °F 68.0 °F 52% 30.02 in 10.0 mi SSW 10.4 mph - N/A   Scattered Clouds
1:35 PM 87.8 °F 91.4 °F 68.0 °F 52% 30.01 in 10.0 mi SSW 11.5 mph - N/A   Partly Cloudy
1:55 PM 87.8 °F 91.4 °F 68.0 °F 52% 30.02 in 10.0 mi SSW 9.2 mph - N/A   Scattered Clouds
2:15 PM 89.6 °F 93.4 °F 68.0 °F 49% 30.02 in 10.0 mi SSW 12.7 mph - N/A   Clear
2:35 PM 89.6 °F 92.2 °F 66.2 °F 46% 30.02 in 10.0 mi South 6.9 mph 19.6 mph N/A   Partly Cloudy
2:55 PM 89.6 °F 92.2 °F 66.2 °F 46% 30.03 in 10.0 mi SSW 13.8 mph 19.6 mph N/A   Partly Cloudy
3:15 PM 91.4 °F 93.2 °F 64.4 °F 41% 30.02 in 10.0 mi SSW 11.5 mph 18.4 mph N/A   Clear
3:35 PM 89.6 °F 91.1 °F 64.4 °F 43% 30.03 in 10.0 mi SW 15.0 mph - N/A   Scattered Clouds
3:55 PM 89.6 °F 91.1 °F 64.4 °F 43% 30.02 in 10.0 mi South 8.1 mph 20.7 mph N/A   Partly Cloudy
4:15 PM 91.4 °F 93.2 °F 64.4 °F 41% 30.01 in 10.0 mi SSW 11.5 mph 19.6 mph N/A   Partly Cloudy
4:35 PM 91.4 °F 92.1 °F 62.6 °F 38% 30.01 in 10.0 mi South 11.5 mph 18.4 mph N/A   Clear
4:55 PM 89.6 °F 90.1 °F 62.6 °F 40% 30.01 in 10.0 mi South 10.4 mph - N/A   Clear
5:15 PM 89.6 °F 90.1 °F 62.6 °F 40% 30.00 in 10.0 mi South 10.4 mph - N/A   Clear
5:35 PM 89.6 °F 90.1 °F 62.6 °F 40% 30.00 in 10.0 mi SSW 11.5 mph - N/A   Clear
5:55 PM 89.6 °F 90.1 °F 62.6 °F 40% 29.99 in 10.0 mi South 10.4 mph 18.4 mph N/A   Clear
6:15 PM 89.6 °F 90.1 °F 62.6 °F 40% 29.99 in 10.0 mi South 10.4 mph 16.1 mph N/A   Clear
6:35 PM 89.6 °F 90.1 °F 62.6 °F 40% 30.00 in 10.0 mi South 12.7 mph 16.1 mph N/A   Partly Cloudy
6:55 PM 89.6 °F 90.1 °F 62.6 °F 40% 30.00 in 10.0 mi South 11.5 mph - N/A   Clear
7:15 PM 87.8 °F 88.5 °F 62.6 °F 43% 29.99 in 10.0 mi South 9.2 mph - N/A   Clear
7:35 PM 87.8 °F 88.5 °F 62.6 °F 43% 29.99 in 10.0 mi South 9.2 mph - N/A   Partly Cloudy
7:55 PM 87.8 °F 87.6 °F 60.8 °F 40% 29.99 in 10.0 mi South 5.8 mph - N/A   Clear
8:15 PM 86.0 °F 86.6 °F 62.6 °F 45% 30.00 in 10.0 mi South 6.9 mph - N/A   Partly Cloudy
8:55 PM 82.4 °F 83.4 °F 62.6 °F 51% 30.00 in 10.0 mi South 3.5 mph - N/A   Clear
9:15 PM 82.4 °F 83.4 °F 62.6 °F 51% 30.01 in 10.0 mi South 3.5 mph - N/A   Clear
9:35 PM 80.6 °F 81.8 °F 62.6 °F 54% 30.04 in 10.0 mi Calm Calm - N/A   Partly Cloudy
9:55 PM 80.6 °F 81.8 °F 62.6 °F 54% 30.03 in 10.0 mi South 3.5 mph - N/A   Partly Cloudy
10:15 PM 78.8 °F - 62.6 °F 57% 30.03 in 10.0 mi South 3.5 mph - N/A   Clear
10:35 PM 78.8 °F - 62.6 °F 57% 30.03 in 10.0 mi South 5.8 mph - N/A   Clear
10:55 PM 78.8 °F - 62.6 °F 57% 30.05 in 10.0 mi SSE 5.8 mph - N/A   Clear
11:15 PM 78.8 °F - 62.6 °F 57% 30.06 in 10.0 mi SSE 4.6 mph - N/A   Clear
11:35 PM 78.8 °F - 62.6 °F 57% 30.07 in 10.0 mi SSE 4.6 mph - N/A   Clear
11:55 PM 77.0 °F - 62.6 °F 61% 30.07 in 10.0 mi SSE 4.6 mph - N/A   Clear